| time (UTC) | temp C | wind direction | speed KPH | gust KPH | rain 1hr cm | rain 24hr cm | rain mn cm | humidity % | barometer mb |
| 20260503193152 | 17 | 228 | 1.6 | 6.4 | 0.00 | 0.00 | 0.00 | 56 | 1013.1 |
| 20260503192651 | 17 | 250 | 1.6 | 11.3 | 0.00 | 0.00 | 0.00 | 59 | 1013.2 |
| 20260503192150 | 17 | 176 | 1.6 | 11.3 | 0.00 | 0.00 | 0.00 | 59 | 1013.2 |
| 20260503191651 | 17 | 271 | 1.6 | 6.4 | 0.00 | 0.00 | 0.00 | 59 | 1013.3 |
| 20260503191151 | 16 | 266 | 3.2 | 8.0 | 0.00 | 0.00 | 0.00 | 59 | 1013.2 |
| 20260503190650 | 16 | 279 | 1.6 | 8.0 | 0.00 | 0.00 | 0.00 | 59 | 1013.3 |
| 20260503190151 | 16 | 283 | 3.2 | 8.0 | 0.00 | 0.00 | 0.00 | 60 | 1013.3 |
| 20260503185650 | 16 | 298 | 4.8 | 8.0 | 0.00 | 0.00 | 0.00 | 60 | 1013.3 |
| 20260503185149 | 16 | 289 | 1.6 | 6.4 | 0.00 | 0.00 | 0.00 | 62 | 1013.3 |
| 20260503185138 | 16 | 285 | 1.6 | 6.4 | 0.00 | 0.00 | 0.00 | 62 | 1013.3 |
| 20260503184149 | 16 | 290 | 0.0 | 9.7 | 0.00 | 0.00 | 0.00 | 63 | 1013.3 |
| 20260503183650 | 16 | 283 | 4.8 | 9.7 | 0.00 | 0.00 | 0.00 | 61 | 1013.4 |
| 20260503183150 | 16 | 279 | 3.2 | 4.8 | 0.00 | 0.00 | 0.00 | 63 | 1013.4 |
| 20260503182649 | 16 | 195 | 0.0 | 4.8 | 0.00 | 0.00 | 0.00 | 64 | 1013.5 |
| 20260503182149 | 15 | 289 | 1.6 | 6.4 | 0.00 | 0.00 | 0.00 | 64 | 1013.6 |
| 20260503181650 | 15 | 289 | 1.6 | 6.4 | 0.00 | 0.00 | 0.00 | 63 | 1013.5 |
| 20260503181408 | 15 | 290 | 1.6 | 9.7 | 0.00 | 0.00 | 0.00 | 64 | 1013.5 |
| 20260503180648 | 15 | 292 | 4.8 | 9.7 | 0.00 | 0.00 | 0.00 | 64 | 1013.5 |
| 20260503180149 | 15 | 309 | 1.6 | 9.7 | 0.00 | 0.00 | 0.00 | 64 | 1013.5 |
| 20260503175648 | 15 | 309 | 3.2 | 14.5 | 0.00 | 0.00 | 0.00 | 64 | 1013.5 |
| 20260503175149 | 16 | 296 | 4.8 | 14.5 | 0.00 | 0.00 | 0.00 | 64 | 1013.4 |
| 20260503174909 | 16 | 266 | 6.4 | 16.1 | 0.00 | 0.00 | 0.00 | 64 | 1013.4 |
| 20260503174149 | 16 | 281 | 8.0 | 16.1 | 0.00 | 0.00 | 0.00 | 63 | 1013.4 |
| 20260503173648 | 16 | 274 | 4.8 | 9.7 | 0.00 | 0.00 | 0.00 | 64 | 1013.4 |
| 20260503173148 | 16 | 296 | 3.2 | 9.7 | 0.00 | 0.00 | 0.00 | 65 | 1013.3 |
| 20260503172647 | 16 | 290 | 3.2 | 9.7 | 0.00 | 0.00 | 0.00 | 65 | 1013.3 |
| 20260503172148 | 16 | 257 | 3.2 | 8.0 | 0.00 | 0.00 | 0.00 | 65 | 1013.2 |
| 20260503171648 | 16 | 261 | 0.0 | 6.4 | 0.00 | 0.00 | 0.00 | 65 | 1013.2 |
| 20260503171148 | 16 | 266 | 0.0 | 6.4 | 0.00 | 0.00 | 0.00 | 65 | 1013.3 |
| 20260503170648 | 16 | 258 | 1.6 | 6.4 | 0.00 | 0.00 | 0.00 | 64 | 1013.2 |
| 20260503170147 | 16 | 290 | 1.6 | 8.0 | 0.00 | 0.00 | 0.00 | 65 | 1013.2 |
| 20260503160145 | 15 | 145 | 3.2 | 8.0 | 0.00 | 0.00 | 0.00 | 69 | 1013.1 |
| 20260503150912 | 13 | 24 | 1.6 | 4.8 | 0.00 | 0.00 | 0.00 | 72 | 1012.9 |
| 20260503150404 | 13 | 319 | 0.0 | 3.2 | 0.00 | 0.00 | 0.00 | 72 | 1012.9 |
| 20260503140143 | 13 | 259 | 0.0 | 4.8 | 0.00 | 0.00 | 0.00 | 72 | 1012.1 |
| 20260503131141 | 13 | 278 | 1.6 | 4.8 | 0.00 | 0.00 | 0.00 | 72 | 1011.6 |
| 20260503130642 | 13 | 278 | 0.0 | 4.8 | 0.00 | 0.00 | 0.00 | 72 | 1011.6 |
| 20260503130142 | 13 | 278 | 3.2 | 4.8 | 0.00 | 0.00 | 0.00 | 72 | 1011.5 |
| 20260503120141 | 13 | 258 | 0.0 | 6.4 | 0.00 | 0.00 | 0.00 | 72 | 1011.4 |
| 20260503110639 | 13 | 275 | 1.6 | 4.8 | 0.00 | 0.00 | 0.00 | 72 | 1011.5 |
| 20260503110139 | 13 | 275 | 1.6 | 4.8 | 0.00 | 0.00 | 0.00 | 72 | 1011.6 |
| 20260503100138 | 13 | 262 | 3.2 | 6.4 | 0.00 | 0.00 | 0.00 | 71 | 1011.5 |
| 20260503090136 | 13 | 286 | 1.6 | 4.8 | 0.00 | 0.00 | 0.00 | 71 | 1011.6 |
| 20260503081636 | 13 | 266 | 1.6 | 4.8 | 0.00 | 0.00 | 0.00 | 71 | 1012.0 |
| 20260503081135 | 13 | 286 | 1.6 | 4.8 | 0.00 | 0.00 | 0.00 | 72 | 1012.2 |
| 20260503080634 | 13 | 283 | 1.6 | 4.8 | 0.00 | 0.00 | 0.00 | 71 | 1012.1 |
| 20260503080400 | 13 | 300 | 0.0 | 4.8 | 0.00 | 0.00 | 0.00 | 72 | 1012.1 |
| 20260503072634 | 13 | 259 | 1.6 | 4.8 | 0.00 | 0.00 | 0.00 | 71 | 1012.2 |
| 20260503072134 | 13 | 99 | 1.6 | 4.8 | 0.00 | 0.00 | 0.00 | 71 | 1012.3 |
| 20260503071634 | 13 | 82 | 0.0 | 4.8 | 0.00 | 0.00 | 0.00 | 71 | 1012.3 |
| 20260503071134 | 13 | 271 | 0.0 | 6.4 | 0.00 | 0.00 | 0.00 | 71 | 1012.3 |
| 20260503070857 | 13 | 272 | 1.6 | 6.4 | 0.00 | 0.00 | 0.00 | 71 | 1012.3 |
| 20260503070134 | 13 | 258 | 1.6 | 6.4 | 0.00 | 0.00 | 0.00 | 71 | 1012.2 |
| 20260503054633 | 13 | 217 | 0.0 | 4.8 | 0.00 | 0.00 | 0.00 | 71 | 1012.7 |
| 20260503054131 | 13 | 35 | 1.6 | 4.8 | 0.00 | 0.00 | 0.00 | 71 | 1012.7 |
| 20260503053632 | 13 | 276 | 0.0 | 8.0 | 0.00 | 0.00 | 0.00 | 71 | 1012.7 |
| 20260503053131 | 13 | 348 | 1.6 | 8.0 | 0.00 | 0.00 | 0.00 | 71 | 1012.8 |
| 20260503052632 | 13 | 306 | 1.6 | 8.0 | 0.00 | 0.00 | 0.00 | 71 | 1012.8 |
| 20260503052131 | 13 | 272 | 1.6 | 6.4 | 0.00 | 0.00 | 0.00 | 71 | 1012.9 |
| 20260503051632 | 13 | 238 | 1.6 | 6.4 | 0.00 | 0.00 | 0.00 | 71 | 1012.9 |
| 20260503051131 | 13 | 323 | 1.6 | 6.4 | 0.00 | 0.00 | 0.00 | 71 | 1012.8 |
| 20260503050631 | 13 | 173 | 0.0 | 4.8 | 0.00 | 0.00 | 0.00 | 71 | 1012.8 |
| 20260503050131 | 13 | 224 | 1.6 | 6.4 | 0.00 | 0.00 | 0.00 | 71 | 1012.8 |
| 20260503045630 | 13 | 252 | 1.6 | 6.4 | 0.00 | 0.00 | 0.00 | 71 | 1012.7 |
| 20260503045131 | 13 | 250 | 1.6 | 6.4 | 0.00 | 0.00 | 0.00 | 71 | 1012.7 |
| 20260503044630 | 13 | 266 | 3.2 | 9.7 | 0.00 | 0.00 | 0.00 | 71 | 1012.8 |
| 20260503044130 | 13 | 258 | 3.2 | 11.3 | 0.00 | 0.00 | 0.00 | 71 | 1012.7 |
| 20260503043630 | 13 | 241 | 3.2 | 11.3 | 0.00 | 0.00 | 0.00 | 71 | 1012.6 |
| 20260503043130 | 13 | 331 | 1.6 | 6.4 | 0.00 | 0.00 | 0.00 | 71 | 1012.6 |
| 20260503042630 | 13 | 268 | 1.6 | 9.7 | 0.00 | 0.00 | 0.00 | 71 | 1012.4 |
| 20260503042130 | 13 | 257 | 3.2 | 9.7 | 0.00 | 0.00 | 0.00 | 71 | 1012.4 |
| 20260503041856 | 13 | 320 | 3.2 | 8.0 | 0.00 | 0.00 | 0.00 | 71 | 1012.5 |
| 20260503041129 | 13 | 0 | 1.6 | 8.0 | 0.00 | 0.00 | 0.00 | 71 | 1012.3 |
| 20260503040630 | 13 | 247 | 1.6 | 9.7 | 0.00 | 0.00 | 0.00 | 70 | 1012.2 |
| 20260503040129 | 13 | 221 | 1.6 | 9.7 | 0.00 | 0.00 | 0.00 | 70 | 1012.3 |
| 20260503035629 | 13 | 207 | 3.2 | 11.3 | 0.00 | 0.00 | 0.00 | 70 | 1012.3 |
| 20260503035611 | 13 | 157 | 3.2 | 11.3 | 0.00 | 0.00 | 0.00 | 70 | 1012.2 |
| 20260503034629 | 13 | 350 | 1.6 | 14.5 | 0.00 | 0.00 | 0.00 | 70 | 1012.1 |
| 20260503034130 | 13 | 258 | 3.2 | 14.5 | 0.00 | 0.00 | 0.00 | 70 | 1012.1 |
| 20260503033628 | 14 | 176 | 1.6 | 11.3 | 0.00 | 0.00 | 0.00 | 70 | 1012.0 |
| 20260503033129 | 14 | 261 | 4.8 | 11.3 | 0.00 | 0.00 | 0.00 | 70 | 1012.0 |
| 20260503032628 | 14 | 296 | 0.0 | 9.7 | 0.00 | 0.00 | 0.00 | 71 | 1012.0 |
| 20260503032129 | 14 | 264 | 4.8 | 9.7 | 0.00 | 0.00 | 0.00 | 71 | 1011.9 |
| 20260503031628 | 14 | 56 | 3.2 | 8.0 | 0.00 | 0.00 | 0.00 | 71 | 1011.8 |
| 20260503031127 | 14 | 269 | 1.6 | 8.0 | 0.00 | 0.00 | 0.00 | 71 | 1011.8 |
| 20260503030851 | 14 | 262 | 3.2 | 9.7 | 0.00 | 0.00 | 0.00 | 70 | 1011.8 |
| 20260503030726 | 14 | 258 | 1.6 | 9.7 | 0.00 | 0.00 | 0.00 | 71 | 1011.7 |
| 20260503025847 | 14 | 10 | 3.2 | 8.0 | 0.00 | 0.00 | 0.00 | 70 | 1011.7 |
| 20260503025346 | 14 | 299 | 1.6 | 6.4 | 0.00 | 0.00 | 0.00 | 70 | 1011.6 |
| 20260503024628 | 14 | 241 | 1.6 | 8.0 | 0.00 | 0.00 | 0.00 | 70 | 1011.7 |
| 20260503024347 | 14 | 231 | 1.6 | 8.0 | 0.00 | 0.00 | 0.00 | 70 | 1011.5 |
| 20260503023628 | 14 | 49 | 3.2 | 8.0 | 0.00 | 0.00 | 0.00 | 70 | 1011.5 |
| 20260503023127 | 15 | 286 | 1.6 | 8.0 | 0.00 | 0.00 | 0.00 | 69 | 1011.5 |
| 20260503022627 | 15 | 214 | 3.2 | 8.0 | 0.00 | 0.00 | 0.00 | 69 | 1011.4 |
| 20260503022353 | 15 | 30 | 1.6 | 9.7 | 0.00 | 0.00 | 0.00 | 69 | 1011.4 |
| 20260503021854 | 15 | 165 | 3.2 | 11.3 | 0.00 | 0.00 | 0.00 | 69 | 1011.4 |
| 20260503021128 | 15 | 123 | 4.8 | 11.3 | 0.00 | 0.00 | 0.00 | 68 | 1011.4 |
| 20260503020844 | 15 | 355 | 3.2 | 16.1 | 0.00 | 0.00 | 0.00 | 68 | 1011.4 |
| 20260503020126 | 15 | 144 | 4.8 | 16.1 | 0.00 | 0.00 | 0.00 | 68 | 1011.4 |
| 20260503015626 | 15 | 140 | 3.2 | 14.5 | 0.00 | 0.00 | 0.00 | 67 | 1011.3 |
| 20260503015126 | 15 | 0 | 3.2 | 11.3 | 0.00 | 0.00 | 0.00 | 67 | 1011.4 |
| 20260503014627 | 16 | 120 | 3.2 | 11.3 | 0.00 | 0.00 | 0.00 | 67 | 1011.4 |
| 20260503014126 | 16 | 289 | 1.6 | 17.7 | 0.00 | 0.00 | 0.00 | 67 | 1011.4 |
| 20260503013626 | 16 | 334 | 1.6 | 17.7 | 0.00 | 0.00 | 0.00 | 67 | 1011.5 |
| 20260503013349 | 16 | 35 | 3.2 | 14.5 | 0.00 | 0.00 | 0.00 | 67 | 1011.4 |
| 20260503012626 | 16 | 234 | 3.2 | 9.7 | 0.00 | 0.00 | 0.00 | 67 | 1011.5 |
| 20260503012349 | 16 | 202 | 1.6 | 9.7 | 0.00 | 0.00 | 0.00 | 66 | 1011.4 |
| 20260503011843 | 16 | 289 | 4.8 | 11.3 | 0.00 | 0.00 | 0.00 | 66 | 1011.4 |
| 20260503011125 | 16 | 231 | 4.8 | 11.3 | 0.00 | 0.00 | 0.00 | 66 | 1011.5 |
| 20260503010626 | 16 | 221 | 3.2 | 14.5 | 0.00 | 0.00 | 0.00 | 66 | 1011.5 |
| 20260503010125 | 16 | 258 | 3.2 | 14.5 | 0.00 | 0.00 | 0.00 | 66 | 1011.4 |
| 20260503005624 | 16 | 169 | 3.2 | 14.5 | 0.00 | 0.00 | 0.00 | 66 | 1011.4 |
| 20260503005125 | 16 | 265 | 3.2 | 11.3 | 0.00 | 0.00 | 0.00 | 66 | 1011.3 |
| 20260503004625 | 16 | 268 | 3.2 | 11.3 | 0.00 | 0.00 | 0.00 | 66 | 1011.4 |
| 20260503004125 | 16 | 230 | 3.2 | 11.3 | 0.00 | 0.00 | 0.00 | 66 | 1011.4 |
| 20260503003624 | 16 | 245 | 3.2 | 9.7 | 0.00 | 0.00 | 0.00 | 66 | 1011.5 |
| 20260503003349 | 16 | 281 | 3.2 | 9.7 | 0.00 | 0.00 | 0.00 | 65 | 1011.5 |
| 20260503002849 | 16 | 274 | 3.2 | 11.3 | 0.00 | 0.00 | 0.00 | 65 | 1011.5 |
| 20260503002347 | 16 | 247 | 4.8 | 11.3 | 0.00 | 0.00 | 0.00 | 65 | 1011.5 |
| 20260503001845 | 17 | 258 | 4.8 | 14.5 | 0.00 | 0.00 | 0.00 | 64 | 1011.6 |
| 20260503001125 | 17 | 310 | 4.8 | 14.5 | 0.00 | 0.00 | 0.00 | 64 | 1011.5 |
| 20260503000842 | 17 | 296 | 3.2 | 14.5 | 0.00 | 0.00 | 0.00 | 64 | 1011.5 |
| 20260503000123 | 17 | 272 | 3.2 | 9.7 | 0.00 | 0.00 | 0.00 | 64 | 1011.5 |
| 20260502235850 | 17 | 312 | 3.2 | 14.5 | 0.00 | 0.00 | 0.00 | 64 | 1011.6 |
| 20260502235123 | 17 | 241 | 4.8 | 14.5 | 0.00 | 0.00 | 0.00 | 63 | 1011.6 |
| 20260502234624 | 17 | 290 | 3.2 | 9.7 | 0.00 | 0.00 | 0.00 | 64 | 1011.5 |
| 20260502234123 | 17 | 250 | 4.8 | 16.1 | 0.00 | 0.00 | 0.00 | 63 | 1011.6 |
| 20260502233623 | 17 | 272 | 6.4 | 16.1 | 0.00 | 0.00 | 0.00 | 62 | 1011.5 |
| 20260502233122 | 17 | 0 | 3.2 | 11.3 | 0.00 | 0.00 | 0.00 | 62 | 1011.6 |
| 20260502232623 | 17 | 268 | 3.2 | 14.5 | 0.00 | 0.00 | 0.00 | 62 | 1011.6 |
| 20260502232122 | 18 | 258 | 4.8 | 16.1 | 0.00 | 0.00 | 0.00 | 61 | 1011.7 |
| 20260502231848 | 18 | 237 | 3.2 | 16.1 | 0.00 | 0.00 | 0.00 | 61 | 1011.7 |
| 20260502231123 | 18 | 262 | 3.2 | 16.1 | 0.00 | 0.00 | 0.00 | 62 | 1011.8 |
| 20260502230623 | 18 | 272 | 4.8 | 14.5 | 0.00 | 0.00 | 0.00 | 62 | 1011.8 |
| 20260502230123 | 18 | 159 | 4.8 | 16.1 | 0.00 | 0.00 | 0.00 | 62 | 1011.8 |
| 20260502225622 | 18 | 292 | 4.8 | 16.1 | 0.00 | 0.00 | 0.00 | 61 | 1011.9 |
| 20260502225343 | 18 | 155 | 4.8 | 16.1 | 0.00 | 0.00 | 0.00 | 61 | 1011.9 |
| 20260502224622 | 18 | 237 | 4.8 | 16.1 | 0.00 | 0.00 | 0.00 | 61 | 1012.0 |
| 20260502224121 | 18 | 31 | 6.4 | 14.5 | 0.00 | 0.00 | 0.00 | 61 | 1012.1 |
| 20260502223622 | 18 | 312 | 4.8 | 14.5 | 0.00 | 0.00 | 0.00 | 61 | 1012.1 |
| 20260502223121 | 18 | 44 | 4.8 | 14.5 | 0.00 | 0.00 | 0.00 | 60 | 1012.1 |
| 20260502222621 | 19 | 268 | 6.4 | 14.5 | 0.00 | 0.00 | 0.00 | 60 | 1012.2 |
| 20260502222122 | 19 | 204 | 3.2 | 11.3 | 0.00 | 0.00 | 0.00 | 60 | 1012.4 |
| 20260502221621 | 19 | 289 | 3.2 | 8.0 | 0.00 | 0.00 | 0.00 | 60 | 1012.4 |
| 20260502221121 | 19 | 16 | 1.6 | 9.7 | 0.00 | 0.00 | 0.00 | 60 | 1012.4 |
| 20260502220621 | 19 | 180 | 3.2 | 9.7 | 0.00 | 0.00 | 0.00 | 60 | 1012.5 |
| 20260502220602 | 19 | 226 | 3.2 | 9.7 | 0.00 | 0.00 | 0.00 | 60 | 1012.5 |
| 20260502215621 | 19 | 116 | 3.2 | 9.7 | 0.00 | 0.00 | 0.00 | 61 | 1012.6 |
| 20260502215121 | 19 | 103 | 1.6 | 11.3 | 0.00 | 0.00 | 0.00 | 60 | 1012.6 |
| 20260502214621 | 19 | 258 | 4.8 | 11.3 | 0.00 | 0.00 | 0.00 | 61 | 1012.7 |
| 20260502214120 | 19 | 51 | 4.8 | 11.3 | 0.00 | 0.00 | 0.00 | 59 | 1012.7 |
| 20260502213621 | 20 | 65 | 3.2 | 11.3 | 0.00 | 0.00 | 0.00 | 62 | 1012.6 |
| 20260502213343 | 20 | 24 | 3.2 | 11.3 | 0.00 | 0.00 | 0.00 | 60 | 1012.7 |
| 20260502212841 | 20 | 210 | 4.8 | 11.3 | 0.00 | 0.00 | 0.00 | 60 | 1012.7 |
| 20260502212120 | 19 | 298 | 3.2 | 11.3 | 0.00 | 0.00 | 0.00 | 61 | 1012.7 |
| 20260502211620 | 19 | 65 | 3.2 | 11.3 | 0.00 | 0.00 | 0.00 | 61 | 1012.8 |
| 20260502211341 | 19 | 266 | 4.8 | 11.3 | 0.00 | 0.00 | 0.00 | 61 | 1012.9 |
| 20260502210620 | 20 | 226 | 3.2 | 9.7 | 0.00 | 0.00 | 0.00 | 58 | 1012.9 |
| 20260502210119 | 20 | 96 | 3.2 | 9.7 | 0.00 | 0.00 | 0.00 | 60 | 1012.9 |
| 20260502205619 | 20 | 152 | 3.2 | 9.7 | 0.00 | 0.00 | 0.00 | 59 | 1013.0 |
| 20260502205120 | 20 | 290 | 3.2 | 11.3 | 0.00 | 0.00 | 0.00 | 60 | 1013.2 |
| 20260502204619 | 20 | 14 | 3.2 | 11.3 | 0.00 | 0.00 | 0.00 | 59 | 1013.2 |
| 20260502204120 | 19 | 17 | 3.2 | 11.3 | 0.00 | 0.00 | 0.00 | 60 | 1013.3 |
| 20260502203619 | 20 | 47 | 3.2 | 8.0 | 0.00 | 0.00 | 0.00 | 57 | 1013.3 |
| 20260502203118 | 20 | 337 | 1.6 | 6.4 | 0.00 | 0.00 | 0.00 | 57 | 1013.3 |
| 20260502202837 | 20 | 65 | 4.8 | 9.7 | 0.00 | 0.00 | 0.00 | 57 | 1013.2 |
| 20260502202118 | 20 | 61 | 3.2 | 9.7 | 0.00 | 0.00 | 0.00 | 58 | 1013.4 |
| 20260502201619 | 20 | 151 | 1.6 | 6.4 | 0.00 | 0.00 | 0.00 | 58 | 1013.5 |
| 20260502201118 | 20 | 213 | 1.6 | 6.4 | 0.00 | 0.00 | 0.00 | 60 | 1013.7 |
| 20260502200618 | 19 | 230 | 1.6 | 4.8 | 0.00 | 0.00 | 0.00 | 59 | 1013.7 |
| 20260502200117 | 20 | 178 | 1.6 | 4.8 | 0.00 | 0.00 | 0.00 | 57 | 1013.8 |
| 20260502195618 | 19 | 68 | 0.0 | 4.8 | 0.00 | 0.00 | 0.00 | 60 | 1013.8 |
| 20260502195119 | 19 | 69 | 1.6 | 4.8 | 0.00 | 0.00 | 0.00 | 59 | 1013.8 |
| 20260502194617 | 20 | 137 | 1.6 | 6.4 | 0.00 | 0.00 | 0.00 | 60 | 1013.9 |
| 20260502194117 | 20 | 76 | 1.6 | 6.4 | 0.00 | 0.00 | 0.00 | 62 | 1014.0 |
| 20260502194108 | 19 | 92 | 0.0 | 4.8 | 0.00 | 0.00 | 0.00 | 62 | 1013.9 |